Tracking 29089 objects as of 12-Jul-2024
HD Live streaming from Space Station
objects crossing your sky now

ATLAS 5 CENTAUR DEB

Track ATLAS 5 CENTAUR DEB now!


NORAD ID: 44667
Int'l Code: 2018-079AD
Perigee: 8,674.4 km
Apogee: 33,498.7 km
Inclination: 12.6 °
Period: 754.7 minutes
Semi major axis: 27457 km
RCS: Unknown
Launch date: October 17, 2018
Source: United States (US)
Launch site: AIR FORCE EASTERN TEST RANGE (AFETR)

Note: This is SATELLITE DEBRIS
Your satellite tracking list
Your tracking list is empty




NASA's NSSDC Master Catalog

Two Line Element Set (TLE):
1 44667U 18079AD  24188.03241091 -.00000172  00000-0  00000-0 0  9996
2 44667  12.6285  80.2298 4520479 229.4185  81.3736  1.90813545  4596
Source of the keplerian elements: AFSPC